Time,TemperatureF,DewpointF,PressureIn,WindDirection,WindDirectionDegrees,WindSpeedMPH,WindSpeedGustMPH,Humidity,HourlyPrecipIn,Conditions,Clouds,dailyrainin,SolarRadiationWatts/m^2,SoftwareType,DateUTC
2013-04-15 00:01:00,49.0,42.1,30.13,South,183,0.0,0.0,77,0.00,,,0.00,0,Wunderground v.1.15,2013-04-15 04:01:00,
2013-04-15 00:03:00,49.0,42.1,30.13,South,183,0.0,0.0,77,0.00,,,0.00,0,Wunderground v.1.15,2013-04-15 04:03:00,
2013-04-15 00:05:00,49.0,42.1,30.13,South,183,0.0,0.0,77,0.00,,,0.00,0,Wunderground v.1.15,2013-04-15 04:05:00,
2013-04-15 00:13:00,49.0,42.8,30.14,South,183,0.0,0.0,79,0.00,,,0.00,0,Wunderground v.1.15,2013-04-15 04:13:00,
2013-04-15 00:19:00,49.0,42.8,30.14,South,183,0.0,0.0,79,0.00,,,0.00,0,Wunderground v.1.15,2013-04-15 04:19:00,
2013-04-15 00:25:00,49.0,43.1,30.15,South,183,0.0,0.0,80,0.00,,,0.00,0,Wunderground v.1.15,2013-04-15 04:25:00,
2013-04-15 00:31:00,49.1,43.5,30.15,South,183,0.0,0.0,81,0.00,,,0.00,0,Wunderground v.1.15,2013-04-15 04:31:00,
2013-04-15 00:37:00,49.1,43.5,30.14,South,183,0.0,0.0,81,0.00,,,0.00,0,Wunderground v.1.15,2013-04-15 04:37:00,
2013-04-15 00:39:00,49.1,43.2,30.14,South,183,0.0,0.0,80,0.00,,,0.00,0,Wunderground v.1.15,2013-04-15 04:39:00,
2013-04-15 00:45:00,49.0,42.8,30.15,South,183,0.0,0.0,79,0.00,,,0.00,0,Wunderground v.1.15,2013-04-15 04:45:00,
2013-04-15 00:51:00,49.1,43.2,30.16,South,183,0.0,0.0,80,0.00,,,0.00,0,Wunderground v.1.15,2013-04-15 04:51:00,
2013-04-15 00:57:00,49.3,43.7,30.16,South,183,0.0,0.0,81,0.00,,,0.00,0,Wunderground v.1.15,2013-04-15 04:57:00,
2013-04-15 01:03:00,49.4,44.1,30.16,South,183,0.0,0.0,82,0.00,,,0.00,0,Wunderground v.1.15,2013-04-15 05:03:00,
2013-04-15 01:09:00,49.3,43.7,30.16,NNE,32,0.0,2.0,81,0.00,,,0.00,0,Wunderground v.1.15,2013-04-15 05:09:00,
2013-04-15 01:15:00,49.4,43.8,30.17,NE,45,1.0,2.0,81,0.00,,,0.00,0,Wunderground v.1.15,2013-04-15 05:15:00,
2013-04-15 01:21:00,49.5,43.9,30.17,NE,50,1.0,1.0,81,0.00,,,0.00,0,Wunderground v.1.15,2013-04-15 05:21:00,
2013-04-15 01:27:00,49.5,43.9,30.17,NE,50,0.0,1.0,81,0.00,,,0.00,0,Wunderground v.1.15,2013-04-15 05:27:00,
2013-04-15 01:33:00,49.6,44.3,30.18,NE,50,0.0,0.0,82,0.00,,,0.00,0,Wunderground v.1.15,2013-04-15 05:33:00,
2013-04-15 01:39:00,49.6,44.3,30.18,NE,50,0.0,0.0,82,0.00,,,0.00,0,Wunderground v.1.15,2013-04-15 05:39:00,
2013-04-15 01:45:00,49.6,44.3,30.18,NE,50,0.0,0.0,82,0.00,,,0.00,0,Wunderground v.1.15,2013-04-15 05:45:00,
2013-04-15 01:51:00,49.6,44.6,30.18,NE,50,0.0,0.0,83,0.00,,,0.00,0,Wunderground v.1.15,2013-04-15 05:51:00,
2013-04-15 01:57:00,49.7,44.7,30.19,NE,50,0.0,2.0,83,0.00,,,0.00,0,Wunderground v.1.15,2013-04-15 05:57:00,
2013-04-15 02:03:00,49.7,44.7,30.19,NE,50,0.0,1.0,83,0.00,,,0.00,0,Wunderground v.1.15,2013-04-15 06:03:00,
2013-04-15 02:09:00,49.8,44.8,30.18,NE,50,0.0,1.0,83,0.00,,,0.00,0,Wunderground v.1.15,2013-04-15 06:09:00,
2013-04-15 02:15:00,49.9,44.6,30.19,NE,50,0.0,1.0,82,0.00,,,0.00,0,Wunderground v.1.15,2013-04-15 06:15:00,
2013-04-15 02:21:00,50.0,44.4,30.19,NE,50,0.0,1.0,81,0.00,,,0.00,0,Wunderground v.1.15,2013-04-15 06:21:00,
2013-04-15 02:27:00,50.0,44.4,30.18,East,99,0.0,2.0,81,0.00,,,0.00,0,Wunderground v.1.15,2013-04-15 06:27:00,
2013-04-15 02:33:00,50.0,43.7,30.19,NE,36,0.0,0.0,79,0.00,,,0.00,0,Wunderground v.1.15,2013-04-15 06:33:00,
2013-04-15 02:39:00,50.0,43.4,30.19,ENE,76,0.0,0.0,78,0.00,,,0.00,0,Wunderground v.1.15,2013-04-15 06:39:00,
2013-04-15 02:45:00,50.0,43.4,30.19,ENE,76,0.0,0.0,78,0.00,,,0.00,0,Wunderground v.1.15,2013-04-15 06:45:00,
2013-04-15 02:51:00,50.0,43.1,30.19,East,80,0.0,0.0,77,0.00,,,0.00,0,Wunderground v.1.15,2013-04-15 06:51:00,
2013-04-15 02:57:00,50.0,42.7,30.19,NNE,24,1.0,2.0,76,0.00,,,0.00,0,Wunderground v.1.15,2013-04-15 06:57:00,
2013-04-15 03:03:00,50.0,42.4,30.19,NE,35,0.0,1.0,75,0.00,,,0.00,0,Wunderground v.1.15,2013-04-15 07:03:00,
2013-04-15 03:41:00,49.7,41.0,30.22,SE,131,0.0,0.0,72,0.00,,,0.00,0,Wunderground v.1.15,2013-04-15 07:41:00,
2013-04-15 03:43:00,49.7,40.7,30.22,SE,131,0.0,0.0,71,0.00,,,0.00,0,Wunderground v.1.15,2013-04-15 07:43:00,
2013-04-15 03:49:00,49.7,40.7,30.23,SE,131,0.0,0.0,71,0.00,,,0.00,0,Wunderground v.1.15,2013-04-15 07:49:00,
2013-04-15 03:53:00,49.7,40.7,30.23,SE,131,0.0,0.0,71,0.00,,,0.00,0,Wunderground v.1.15,2013-04-15 07:53:00,
2013-04-15 03:59:00,49.7,40.3,30.23,SE,131,0.0,0.0,70,0.00,,,0.00,0,Wunderground v.1.15,2013-04-15 07:59:00,
2013-04-15 04:05:00,49.7,39.9,30.23,East,82,0.0,0.0,69,0.00,,,0.00,0,Wunderground v.1.15,2013-04-15 08:05:00,
2013-04-15 04:13:00,49.7,39.9,30.23,South,173,0.0,0.0,69,0.00,,,0.00,0,Wunderground v.1.15,2013-04-15 08:13:00,
2013-04-15 04:19:00,49.7,39.6,30.23,NNE,13,0.0,5.0,68,0.00,,,0.00,0,Wunderground v.1.15,2013-04-15 08:19:00,
2013-04-15 04:25:00,49.9,39.4,30.23,NE,51,1.0,5.0,67,0.00,,,0.00,0,Wunderground v.1.15,2013-04-15 08:25:00,
2013-04-15 04:33:00,49.9,39.8,30.23,NE,45,1.0,1.0,68,0.00,,,0.00,0,Wunderground v.1.15,2013-04-15 08:33:00,
2013-04-15 04:41:00,49.9,40.1,30.23,ENE,57,0.0,2.0,69,0.00,,,0.00,0,Wunderground v.1.15,2013-04-15 08:41:00,
2013-04-15 04:43:00,50.0,40.2,30.23,SSE,155,1.0,2.0,69,0.00,,,0.00,0,Wunderground v.1.15,2013-04-15 08:43:00,
2013-04-15 04:45:00,50.0,40.2,30.24,North,5,1.0,2.0,69,0.00,,,0.00,0,Wunderground v.1.15,2013-04-15 08:45:00,
2013-04-15 04:47:00,50.0,40.2,30.24,NW,316,1.0,2.0,69,0.00,,,0.00,0,Wunderground v.1.15,2013-04-15 08:47:00,
2013-04-15 04:53:00,50.0,40.2,30.24,ENE,69,0.0,1.0,69,0.00,,,0.00,0,Wunderground v.1.15,2013-04-15 08:53:00,
2013-04-15 05:00:00,50.0,39.8,30.24,ENE,60,0.0,1.0,68,0.00,,,0.00,0,Wunderground v.1.15,2013-04-15 09:00:00,
2013-04-15 05:05:00,49.9,39.0,30.23,NE,36,1.0,4.0,66,0.00,,,0.00,0,Wunderground v.1.15,2013-04-15 09:05:00,
2013-04-15 05:11:00,49.9,38.6,30.23,NNW,348,1.0,1.0,65,0.00,,,0.00,0,Wunderground v.1.15,2013-04-15 09:11:00,
2013-04-15 05:17:00,49.9,38.2,30.23,NE,45,1.0,1.0,64,0.00,,,0.00,0,Wunderground v.1.15,2013-04-15 09:17:00,
2013-04-15 05:23:00,49.9,37.8,30.23,SW,226,1.0,1.0,63,0.00,,,0.00,0,Wunderground v.1.15,2013-04-15 09:23:00,
2013-04-15 05:29:00,49.8,37.3,30.23,NE,40,1.0,1.0,62,0.00,,,0.00,0,Wunderground v.1.15,2013-04-15 09:29:00,
2013-04-15 05:35:00,49.7,37.6,30.23,ENE,69,2.0,2.0,63,0.00,,,0.00,0,Wunderground v.1.15,2013-04-15 09:35:00,
2013-04-15 05:41:00,49.6,37.5,30.23,NE,34,1.0,1.0,63,0.00,,,0.00,0,Wunderground v.1.15,2013-04-15 09:41:00,
2013-04-15 05:47:00,49.5,38.2,30.24,ENE,59,1.0,1.0,65,0.00,,,0.00,0,Wunderground v.1.15,2013-04-15 09:47:00,
2013-04-15 05:53:00,49.4,38.5,30.23,NE,55,1.0,2.0,66,0.00,,,0.00,0,Wunderground v.1.15,2013-04-15 09:53:00,
2013-04-15 05:59:00,49.3,38.8,30.24,ENE,61,1.0,1.0,67,0.00,,,0.00,0,Wunderground v.1.15,2013-04-15 09:59:00,
2013-04-15 06:05:00,49.1,39.4,30.24,ENE,65,2.0,2.0,69,0.00,,,0.00,0,Wunderground v.1.15,2013-04-15 10:05:00,
2013-04-15 06:11:00,49.0,39.6,30.24,ENE,57,2.0,4.0,70,0.00,,,0.00,0,Wunderground v.1.15,2013-04-15 10:11:00,
2013-04-15 06:17:00,49.0,40.4,30.24,NE,38,2.0,5.0,72,0.00,,,0.00,0,Wunderground v.1.15,2013-04-15 10:17:00,
2013-04-15 06:23:00,48.9,40.3,30.25,NE,49,2.0,3.0,72,0.00,,,0.00,0,Wunderground v.1.15,2013-04-15 10:23:00,
2013-04-15 06:29:00,48.8,40.2,30.26,SSW,211,0.0,0.0,72,0.00,,,0.00,0,Wunderground v.1.15,2013-04-15 10:29:00,
2013-04-15 06:35:00,48.8,40.2,30.26,NE,44,1.0,2.0,72,0.00,,,0.00,0,Wunderground v.1.15,2013-04-15 10:35:00,
2013-04-15 06:41:00,48.7,40.4,30.27,NNE,13,1.0,1.0,73,0.00,,,0.00,0,Wunderground v.1.15,2013-04-15 10:41:00,
2013-04-15 06:47:00,48.7,40.8,30.27,WNW,287,1.0,4.0,74,0.00,,,0.00,0,Wunderground v.1.15,2013-04-15 10:47:00,
2013-04-15 06:53:00,48.6,40.7,30.28,West,269,0.0,1.0,74,0.00,,,0.00,5,Wunderground v.1.15,2013-04-15 10:53:00,
2013-04-15 06:59:00,48.5,40.9,30.28,NE,45,0.0,0.0,75,0.00,,,0.00,7,Wunderground v.1.15,2013-04-15 10:59:00,
2013-04-15 07:05:00,48.4,40.8,30.29,West,279,1.0,1.0,75,0.00,,,0.00,7,Wunderground v.1.15,2013-04-15 11:05:00,
2013-04-15 07:11:00,48.2,41.0,30.29,NE,42,0.0,0.0,76,0.00,,,0.00,11,Wunderground v.1.15,2013-04-15 11:11:00,
2013-04-15 07:17:00,48.2,41.3,30.30,NNE,30,1.0,1.0,77,0.00,,,0.00,11,Wunderground v.1.15,2013-04-15 11:17:00,
2013-04-15 07:23:00,48.0,41.5,30.30,NNE,30,0.0,0.0,78,0.00,,,0.00,14,Wunderground v.1.15,2013-04-15 11:23:00,
2013-04-15 07:29:00,47.9,41.4,30.30,NE,41,0.0,0.0,78,0.00,,,0.00,16,Wunderground v.1.15,2013-04-15 11:29:00,
2013-04-15 07:35:00,47.7,41.5,30.30,SSE,163,0.0,3.0,79,0.00,,,0.00,19,Wunderground v.1.15,2013-04-15 11:35:00,
2013-04-15 07:41:00,47.5,42.0,30.30,East,86,1.0,3.0,81,0.00,,,0.00,19,Wunderground v.1.15,2013-04-15 11:41:00,
2013-04-15 07:47:00,47.3,42.1,30.30,East,88,1.0,3.0,82,0.00,,,0.01,21,Wunderground v.1.15,2013-04-15 11:47:00,
2013-04-15 07:53:00,47.1,42.2,30.30,East,88,0.0,1.0,83,0.00,,,0.01,23,Wunderground v.1.15,2013-04-15 11:53:00,
2013-04-15 08:00:00,46.8,42.5,30.30,SE,137,1.0,1.0,85,0.00,,,0.01,26,Wunderground v.1.15,2013-04-15 12:00:00,
2013-04-15 08:05:00,46.6,42.6,30.30,NE,44,1.0,4.0,86,0.00,,,0.01,28,Wunderground v.1.15,2013-04-15 12:05:00,
2013-04-15 08:11:00,46.4,42.7,30.30,NE,44,1.0,5.0,87,0.00,,,0.01,32,Wunderground v.1.15,2013-04-15 12:11:00,
2013-04-15 08:17:00,46.3,42.6,30.30,NE,52,2.0,7.0,87,0.00,,,0.01,40,Wunderground v.1.15,2013-04-15 12:17:00,
2013-04-15 08:23:00,46.3,42.9,30.30,East,82,2.0,4.0,88,0.00,,,0.02,47,Wunderground v.1.15,2013-04-15 12:23:00,
2013-04-15 08:29:00,46.4,43.0,30.30,NE,46,1.0,1.0,88,0.00,,,0.02,56,Wunderground v.1.15,2013-04-15 12:29:00,
2013-04-15 08:35:00,46.4,43.0,30.30,East,84,1.0,1.0,88,0.00,,,0.02,63,Wunderground v.1.15,2013-04-15 12:35:00,
2013-04-15 08:41:00,46.5,43.1,30.30,ENE,57,0.0,4.0,88,0.00,,,0.02,67,Wunderground v.1.15,2013-04-15 12:41:00,
2013-04-15 08:49:00,46.6,43.5,30.29,NNE,30,1.0,1.0,89,0.00,,,0.02,76,Wunderground v.1.15,2013-04-15 12:49:00,
2013-04-15 08:55:00,46.8,43.7,30.29,NE,44,1.0,4.0,89,0.00,,,0.02,86,Wunderground v.1.15,2013-04-15 12:55:00,
2013-04-15 09:01:00,46.8,43.4,30.29,ENE,62,1.0,2.0,88,0.00,,,0.02,105,Wunderground v.1.15,2013-04-15 13:01:00,
2013-04-15 09:07:00,47.0,43.6,30.29,ENE,64,2.0,5.0,88,0.00,,,0.02,116,Wunderground v.1.15,2013-04-15 13:07:00,
2013-04-15 09:13:00,47.2,43.5,30.29,ENE,62,2.0,4.0,87,0.00,,,0.02,125,Wunderground v.1.15,2013-04-15 13:13:00,
2013-04-15 09:19:00,47.5,43.8,30.29,SSW,200,2.0,2.0,87,0.00,,,0.02,137,Wunderground v.1.15,2013-04-15 13:19:00,
2013-04-15 09:25:00,47.7,43.7,30.29,NE,35,2.0,4.0,86,0.00,,,0.02,146,Wunderground v.1.15,2013-04-15 13:25:00,
2013-04-15 09:31:00,48.0,43.7,30.28,NE,50,2.0,2.0,85,0.00,,,0.02,137,Wunderground v.1.15,2013-04-15 13:31:00,
2013-04-15 09:37:00,48.2,43.6,30.28,NE,46,2.0,4.0,84,0.00,,,0.02,128,Wunderground v.1.15,2013-04-15 13:37:00,
2013-04-15 09:43:00,48.4,43.8,30.28,North,11,2.0,2.0,84,0.00,,,0.02,137,Wunderground v.1.15,2013-04-15 13:43:00,
2013-04-15 09:49:00,48.6,43.7,30.28,SSW,199,2.0,2.0,83,0.00,,,0.02,144,Wunderground v.1.15,2013-04-15 13:49:00,
2013-04-15 09:55:00,48.8,43.5,30.28,ENE,69,2.0,4.0,82,0.00,,,0.02,156,Wunderground v.1.15,2013-04-15 13:55:00,
2013-04-15 10:03:00,49.2,43.9,30.28,NE,54,2.0,2.0,82,0.00,,,0.02,183,Wunderground v.1.15,2013-04-15 14:03:00,
2013-04-15 10:09:00,49.5,44.2,30.28,NE,45,2.0,5.0,82,0.00,,,0.02,193,Wunderground v.1.15,2013-04-15 14:09:00,
2013-04-15 10:15:00,49.8,44.2,30.28,ESE,121,2.0,5.0,81,0.00,,,0.02,221,Wunderground v.1.15,2013-04-15 14:15:00,
2013-04-15 10:21:00,50.2,44.6,30.28,NE,36,1.0,1.0,81,0.00,,,0.02,269,Wunderground v.1.15,2013-04-15 14:21:00,
2013-04-15 10:27:00,50.8,45.2,30.28,NE,50,1.0,4.0,81,0.00,,,0.02,357,Wunderground v.1.15,2013-04-15 14:27:00,
2013-04-15 10:33:00,51.3,44.7,30.28,NNE,18,1.0,2.0,78,0.00,,,0.02,380,Wunderground v.1.15,2013-04-15 14:33:00,
2013-04-15 10:39:00,51.9,45.3,30.28,NW,316,2.0,4.0,78,0.00,,,0.02,424,Wunderground v.1.15,2013-04-15 14:39:00,
2013-04-15 10:45:00,52.4,45.1,30.29,NW,320,2.0,4.0,76,0.00,,,0.02,438,Wunderground v.1.15,2013-04-15 14:45:00,
2013-04-15 10:51:00,53.1,45.4,30.29,NE,46,2.0,12.0,75,0.00,,,0.02,457,Wunderground v.1.15,2013-04-15 14:51:00,
2013-04-15 10:57:00,53.4,45.3,30.28,South,181,2.0,12.0,74,0.00,,,0.02,387,Wunderground v.1.15,2013-04-15 14:57:00,
2013-04-15 11:03:00,53.6,44.8,30.29,NNE,28,3.0,3.0,72,0.00,,,0.02,369,Wunderground v.1.15,2013-04-15 15:03:00,
2013-04-15 11:09:00,53.8,45.0,30.29,North,349,3.0,3.0,72,0.00,,,0.02,355,Wunderground v.1.15,2013-04-15 15:09:00,
2013-04-15 11:15:00,53.9,44.7,30.29,West,259,3.0,3.0,71,0.00,,,0.02,369,Wunderground v.1.15,2013-04-15 15:15:00,
2013-04-15 11:21:00,54.2,45.0,30.29,ESE,106,2.0,2.0,71,0.00,,,0.02,325,Wunderground v.1.15,2013-04-15 15:21:00,
2013-04-15 11:27:00,54.3,44.7,30.29,North,355,2.0,3.0,70,0.00,,,0.02,302,Wunderground v.1.15,2013-04-15 15:27:00,
2013-04-15 11:33:00,54.3,44.7,30.30,NE,34,2.0,6.0,70,0.00,,,0.02,262,Wunderground v.1.15,2013-04-15 15:33:00,
2013-04-15 11:39:00,54.0,44.4,30.29,North,355,3.0,3.0,70,0.00,,,0.02,294,Wunderground v.1.15,2013-04-15 15:39:00,
2013-04-15 11:45:00,54.1,44.9,30.29,North,9,2.0,3.0,71,0.00,,,0.02,295,Wunderground v.1.15,2013-04-15 15:45:00,
2013-04-15 11:53:00,54.0,45.2,30.28,SSE,157,2.0,2.0,72,0.00,,,0.02,367,Wunderground v.1.15,2013-04-15 15:53:00,
2013-04-15 12:00:00,54.2,45.4,30.28,NE,36,2.0,2.0,72,0.00,,,0.02,454,Wunderground v.1.15,2013-04-15 16:00:00,
2013-04-15 12:05:00,54.4,44.8,30.28,NNW,335,2.0,12.0,70,0.00,,,0.02,575,Wunderground v.1.15,2013-04-15 16:05:00,
2013-04-15 12:13:00,55.1,45.5,30.27,NE,34,3.0,14.0,70,0.00,,,0.02,570,Wunderground v.1.15,2013-04-15 16:13:00,
2013-04-15 12:19:00,55.0,45.0,30.27,SSW,209,4.0,4.0,69,0.00,,,0.02,636,Wunderground v.1.15,2013-04-15 16:19:00,
2013-04-15 12:25:00,55.5,45.9,30.27,SSW,212,2.0,6.0,70,0.00,,,0.02,694,Wunderground v.1.15,2013-04-15 16:25:00,
2013-04-15 12:31:00,55.5,45.1,30.27,NE,51,3.0,7.0,68,0.00,,,0.02,288,Wunderground v.1.15,2013-04-15 16:31:00,
2013-04-15 12:39:00,54.6,45.0,30.27,ESE,104,4.0,4.0,70,0.00,,,0.02,227,Wunderground v.1.15,2013-04-15 16:39:00,
2013-04-15 12:47:00,54.1,44.9,30.27,NE,53,2.0,7.0,71,0.00,,,0.02,165,Wunderground v.1.15,2013-04-15 16:47:00,
2013-04-15 12:53:00,53.8,44.6,30.27,ENE,78,3.0,5.0,71,0.00,,,0.02,202,Wunderground v.1.15,2013-04-15 16:53:00,
2013-04-15 13:00:00,53.7,44.5,30.27,NE,47,3.0,5.0,71,0.00,,,0.03,244,Wunderground v.1.15,2013-04-15 17:00:00,
2013-04-15 13:05:00,53.8,44.6,30.27,NE,51,3.0,5.0,71,0.00,,,0.03,320,Wunderground v.1.15,2013-04-15 17:05:00,
2013-04-15 13:13:00,54.4,45.2,30.28,ENE,61,2.0,4.0,71,0.00,,,0.03,360,Wunderground v.1.15,2013-04-15 17:13:00,
2013-04-15 13:19:00,54.4,44.8,30.28,SSE,159,3.0,4.0,70,0.00,,,0.03,318,Wunderground v.1.15,2013-04-15 17:19:00,
2013-04-15 13:21:00,54.4,44.8,30.28,South,183,3.0,4.0,70,0.00,,,0.03,334,Wunderground v.1.15,2013-04-15 17:21:00,
2013-04-15 13:27:00,54.8,45.2,30.28,East,80,2.0,4.0,70,0.00,,,0.03,429,Wunderground v.1.15,2013-04-15 17:27:00,
2013-04-15 13:29:00,55.1,45.5,30.28,SE,129,2.0,2.0,70,0.00,,,0.03,434,Wunderground v.1.15,2013-04-15 17:29:00,
2013-04-15 13:35:00,55.5,45.5,30.28,ESE,102,2.0,7.0,69,0.00,,,0.03,483,Wunderground v.1.15,2013-04-15 17:35:00,
2013-04-15 13:37:00,55.8,46.2,30.29,East,95,1.0,7.0,70,0.00,,,0.03,468,Wunderground v.1.15,2013-04-15 17:37:00,
2013-04-15 13:43:00,56.4,46.0,30.29,SSE,158,2.0,3.0,68,0.00,,,0.03,513,Wunderground v.1.15,2013-04-15 17:43:00,
2013-04-15 13:49:00,57.0,46.1,30.29,South,177,2.0,2.0,67,0.00,,,0.03,882,Wunderground v.1.15,2013-04-15 17:49:00,
2013-04-15 13:55:00,57.4,45.7,30.30,SSE,163,3.0,11.0,65,0.00,,,0.03,515,Wunderground v.1.15,2013-04-15 17:55:00,
2013-04-15 14:01:00,57.5,45.8,30.29,SW,224,3.0,5.0,65,0.00,,,0.03,376,Wunderground v.1.15,2013-04-15 18:01:00,
2013-04-15 14:07:00,57.5,45.8,30.30,South,177,3.0,5.0,65,0.00,,,0.03,336,Wunderground v.1.15,2013-04-15 18:07:00,
2013-04-15 14:13:00,57.4,46.1,30.29,SSE,159,2.0,2.0,66,0.00,,,0.03,403,Wunderground v.1.15,2013-04-15 18:13:00,
2013-04-15 14:19:00,57.3,46.0,30.30,NE,35,2.0,2.0,66,0.00,,,0.03,561,Wunderground v.1.15,2013-04-15 18:19:00,
2013-04-15 14:25:00,57.1,45.8,30.30,SSW,211,3.0,4.0,66,0.00,,,0.03,427,Wunderground v.1.15,2013-04-15 18:25:00,
2013-04-15 14:29:00,57.4,46.5,30.30,SSW,197,2.0,2.0,67,0.00,,,0.03,457,Wunderground v.1.15,2013-04-15 18:29:00,
2013-04-15 14:33:00,57.7,46.4,30.30,ESE,123,2.0,2.0,66,0.00,,,0.03,406,Wunderground v.1.15,2013-04-15 18:33:00,
2013-04-15 14:35:00,57.9,46.6,30.30,South,172,1.0,2.0,66,0.00,,,0.03,397,Wunderground v.1.15,2013-04-15 18:35:00,
2013-04-15 14:41:00,58.2,46.5,30.30,South,181,2.0,4.0,65,0.00,,,0.03,387,Wunderground v.1.15,2013-04-15 18:41:00,
2013-04-15 14:47:00,58.4,46.3,30.30,ESE,120,2.0,6.0,64,0.00,,,0.03,383,Wunderground v.1.15,2013-04-15 18:47:00,
2013-04-15 14:53:00,58.2,46.1,30.30,ESE,107,2.0,4.0,64,0.00,,,0.03,408,Wunderground v.1.15,2013-04-15 18:53:00,
2013-04-15 14:57:00,58.2,46.5,30.29,SSE,159,2.0,4.0,65,0.00,,,0.03,729,Wunderground v.1.15,2013-04-15 18:57:00,
2013-04-15 15:03:00,58.9,47.6,30.29,SE,130,2.0,2.0,66,0.00,,,0.03,780,Wunderground v.1.15,2013-04-15 19:03:00,
2013-04-15 15:09:00,58.9,46.3,30.30,SSE,164,2.0,2.0,63,0.00,,,0.03,410,Wunderground v.1.15,2013-04-15 19:09:00,
2013-04-15 15:15:00,58.7,46.5,30.29,ESE,119,1.0,2.0,64,0.00,,,0.03,385,Wunderground v.1.15,2013-04-15 19:15:00,
2013-04-15 15:19:00,58.7,47.0,30.29,SSE,152,1.0,1.0,65,0.00,,,0.03,348,Wunderground v.1.15,2013-04-15 19:19:00,
2013-04-15 15:25:00,58.7,46.5,30.29,SSW,196,1.0,3.0,64,0.00,,,0.03,311,Wunderground v.1.15,2013-04-15 19:25:00,
2013-04-15 15:31:00,58.5,46.8,30.29,SSW,205,2.0,2.0,65,0.00,,,0.03,274,Wunderground v.1.15,2013-04-15 19:31:00,
2013-04-15 15:37:00,58.4,46.7,30.28,SSE,157,1.0,2.0,65,0.00,,,0.03,248,Wunderground v.1.15,2013-04-15 19:37:00,
2013-04-15 15:45:00,58.1,46.4,30.29,East,92,2.0,3.0,65,0.00,,,0.03,230,Wunderground v.1.15,2013-04-15 19:45:00,
2013-04-15 15:55:00,57.2,46.7,30.29,South,175,1.0,2.0,68,0.00,,,0.03,188,Wunderground v.1.15,2013-04-15 19:55:00,
2013-04-15 15:57:00,57.1,46.2,30.29,SSE,161,1.0,2.0,67,0.00,,,0.03,192,Wunderground v.1.15,2013-04-15 19:57:00,
2013-04-15 15:59:00,57.1,46.6,30.29,SSE,165,1.0,1.0,68,0.00,,,0.03,190,Wunderground v.1.15,2013-04-15 19:59:00,
2013-04-15 16:01:00,57.0,46.5,30.29,SSE,165,1.0,1.0,68,0.00,,,0.03,179,Wunderground v.1.15,2013-04-15 20:01:00,
2013-04-15 16:03:00,57.0,46.5,30.29,SE,144,1.0,1.0,68,0.00,,,0.03,169,Wunderground v.1.15,2013-04-15 20:03:00,
2013-04-15 16:07:00,56.7,46.3,30.29,SE,133,1.0,1.0,68,0.00,,,0.03,149,Wunderground v.1.15,2013-04-15 20:07:00,
2013-04-15 16:09:00,56.6,46.2,30.29,SE,140,1.0,1.0,68,0.00,,,0.03,146,Wunderground v.1.15,2013-04-15 20:09:00,
2013-04-15 16:15:00,56.3,46.3,30.29,SSE,161,1.0,5.0,69,0.00,,,0.03,148,Wunderground v.1.15,2013-04-15 20:15:00,
2013-04-15 16:21:00,56.0,46.4,30.28,SSE,155,1.0,2.0,70,0.00,,,0.03,160,Wunderground v.1.15,2013-04-15 20:21:00,
2013-04-15 16:27:00,55.7,46.4,30.28,SE,134,2.0,2.0,71,0.00,,,0.03,171,Wunderground v.1.15,2013-04-15 20:27:00,
2013-04-15 16:31:00,55.7,46.4,30.28,South,178,1.0,1.0,71,0.00,,,0.03,174,Wunderground v.1.15,2013-04-15 20:31:00,
2013-04-15 16:37:00,55.7,46.4,30.28,South,180,1.0,1.0,71,0.00,,,0.03,153,Wunderground v.1.15,2013-04-15 20:37:00,
2013-04-15 16:43:00,55.6,46.7,30.28,ESE,115,1.0,2.0,72,0.00,,,0.03,125,Wunderground v.1.15,2013-04-15 20:43:00,
2013-04-15 16:49:00,55.5,46.6,30.28,SSW,198,1.0,1.0,72,0.00,,,0.03,98,Wunderground v.1.15,2013-04-15 20:49:00,
2013-04-15 16:55:00,55.2,46.3,30.28,South,174,1.0,1.0,72,0.00,,,0.03,105,Wunderground v.1.15,2013-04-15 20:55:00,
2013-04-15 17:01:00,55.1,46.6,30.28,SSE,161,1.0,3.0,73,0.00,,,0.03,123,Wunderground v.1.15,2013-04-15 21:01:00,
2013-04-15 17:07:00,55.1,46.6,30.28,SE,139,1.0,3.0,73,0.00,,,0.03,156,Wunderground v.1.15,2013-04-15 21:07:00,
2013-04-15 17:13:00,55.1,46.6,30.28,SE,131,1.0,1.0,73,0.00,,,0.03,158,Wunderground v.1.15,2013-04-15 21:13:00,
2013-04-15 17:19:00,55.0,46.5,30.28,South,172,1.0,3.0,73,0.00,,,0.03,142,Wunderground v.1.15,2013-04-15 21:19:00,
2013-04-15 17:25:00,55.0,46.9,30.28,ESE,113,1.0,3.0,74,0.00,,,0.03,144,Wunderground v.1.15,2013-04-15 21:25:00,
2013-04-15 17:31:00,55.1,47.0,30.28,SE,128,1.0,1.0,74,0.00,,,0.03,128,Wunderground v.1.15,2013-04-15 21:31:00,
2013-04-15 17:37:00,55.2,47.1,30.28,South,178,1.0,1.0,74,0.00,,,0.03,134,Wunderground v.1.15,2013-04-15 21:37:00,
2013-04-15 17:43:00,55.1,46.6,30.28,SSE,165,1.0,1.0,73,0.00,,,0.03,116,Wunderground v.1.15,2013-04-15 21:43:00,
2013-04-15 17:49:00,55.0,46.9,30.28,South,174,1.0,2.0,74,0.00,,,0.03,98,Wunderground v.1.15,2013-04-15 21:49:00,
2013-04-15 17:55:00,54.8,46.7,30.29,South,184,1.0,7.0,74,0.00,,,0.03,83,Wunderground v.1.15,2013-04-15 21:55:00,
2013-04-15 18:01:00,54.7,46.6,30.29,SSE,154,1.0,3.0,74,0.00,,,0.03,74,Wunderground v.1.15,2013-04-15 22:01:00,
2013-04-15 18:07:00,54.4,46.6,30.29,SE,126,1.0,3.0,75,0.00,,,0.03,67,Wunderground v.1.15,2013-04-15 22:07:00,
2013-04-15 18:13:00,54.3,46.5,30.29,SE,138,0.0,1.0,75,0.00,,,0.03,56,Wunderground v.1.15,2013-04-15 22:13:00,
2013-04-15 18:19:00,54.1,46.7,30.29,NE,44,0.0,0.0,76,0.00,,,0.03,53,Wunderground v.1.15,2013-04-15 22:19:00,
2013-04-15 18:25:00,54.0,46.6,30.29,SSE,158,0.0,0.0,76,0.00,,,0.03,51,Wunderground v.1.15,2013-04-15 22:25:00,
2013-04-15 18:31:00,53.8,46.4,30.29,SE,145,1.0,1.0,76,0.00,,,0.03,47,Wunderground v.1.15,2013-04-15 22:31:00,
2013-04-15 18:37:00,53.8,46.8,30.29,NE,39,0.0,2.0,77,0.00,,,0.03,40,Wunderground v.1.15,2013-04-15 22:37:00,
2013-04-15 18:43:00,53.6,46.6,30.29,SSW,209,1.0,2.0,77,0.00,,,0.03,33,Wunderground v.1.15,2013-04-15 22:43:00,
2013-04-15 18:49:00,53.5,46.8,30.29,East,84,1.0,1.0,78,0.00,,,0.03,28,Wunderground v.1.15,2013-04-15 22:49:00,
2013-04-15 18:55:00,53.4,46.7,30.29,East,87,0.0,1.0,78,0.00,,,0.03,25,Wunderground v.1.15,2013-04-15 22:55:00,
2013-04-15 19:01:00,53.3,46.6,30.30,East,87,0.0,0.0,78,0.00,,,0.03,23,Wunderground v.1.15,2013-04-15 23:01:00,
2013-04-15 19:07:00,53.1,46.4,30.29,NE,44,0.0,1.0,78,0.00,,,0.03,18,Wunderground v.1.15,2013-04-15 23:07:00,
2013-04-15 19:13:00,52.9,46.2,30.29,NE,44,0.0,1.0,78,0.00,,,0.03,12,Wunderground v.1.15,2013-04-15 23:13:00,
2013-04-15 19:19:00,52.7,46.4,30.30,NE,44,0.0,0.0,79,0.00,,,0.03,9,Wunderground v.1.15,2013-04-15 23:19:00,
2013-04-15 19:25:00,52.6,46.3,30.30,NE,45,0.0,0.0,79,0.00,,,0.03,5,Wunderground v.1.15,2013-04-15 23:25:00,
2013-04-15 19:31:00,52.5,46.2,30.30,East,89,0.0,1.0,79,0.00,,,0.03,0,Wunderground v.1.15,2013-04-15 23:31:00,
2013-04-15 19:37:00,52.4,46.4,30.30,East,89,0.0,1.0,80,0.00,,,0.03,0,Wunderground v.1.15,2013-04-15 23:37:00,
2013-04-15 19:43:00,52.2,45.9,30.31,NE,36,0.0,1.0,79,0.00,,,0.03,0,Wunderground v.1.15,2013-04-15 23:43:00,
2013-04-15 19:49:00,52.1,46.1,30.31,NE,46,1.0,1.0,80,0.00,,,0.03,0,Wunderground v.1.15,2013-04-15 23:49:00,
2013-04-15 19:55:00,52.0,46.0,30.31,NE,49,1.0,1.0,80,0.00,,,0.03,0,Wunderground v.1.15,2013-04-15 23:55:00,
2013-04-15 20:01:00,51.8,45.8,30.31,NE,45,1.0,1.0,80,0.00,,,0.03,0,Wunderground v.1.15,2013-04-16 00:01:00,
2013-04-15 20:07:00,51.7,45.7,30.31,NE,45,0.0,1.0,80,0.00,,,0.03,0,Wunderground v.1.15,2013-04-16 00:07:00,
2013-04-15 20:13:00,51.7,45.7,30.32,NE,45,0.0,0.0,80,0.00,,,0.03,0,Wunderground v.1.15,2013-04-16 00:13:00,
2013-04-15 20:19:00,51.6,46.0,30.32,NE,45,0.0,0.0,81,0.00,,,0.03,0,Wunderground v.1.15,2013-04-16 00:19:00,
2013-04-15 20:25:00,51.5,45.9,30.32,NE,45,0.0,0.0,81,0.00,,,0.03,0,Wunderground v.1.15,2013-04-16 00:25:00,
2013-04-15 20:31:00,51.4,45.8,30.32,SSE,148,0.0,0.0,81,0.00,,,0.03,0,Wunderground v.1.15,2013-04-16 00:31:00,
2013-04-15 20:37:00,51.3,45.7,30.32,SSE,148,0.0,0.0,81,0.00,,,0.03,0,Wunderground v.1.15,2013-04-16 00:37:00,
2013-04-15 20:43:00,51.2,45.6,30.32,SSE,148,0.0,0.0,81,0.00,,,0.03,0,Wunderground v.1.15,2013-04-16 00:43:00,
2013-04-15 20:49:00,51.1,45.5,30.33,SSE,148,0.0,1.0,81,0.00,,,0.03,0,Wunderground v.1.15,2013-04-16 00:49:00,
2013-04-15 20:55:00,51.0,45.7,30.33,SE,146,0.0,1.0,82,0.00,,,0.03,0,Wunderground v.1.15,2013-04-16 00:55:00,
2013-04-15 21:03:00,50.8,45.5,30.33,SSE,147,0.0,0.0,82,0.00,,,0.03,0,Wunderground v.1.15,2013-04-16 01:03:00,
2013-04-15 21:09:00,50.8,45.8,30.33,SE,146,0.0,0.0,83,0.00,,,0.03,0,Wunderground v.1.15,2013-04-16 01:09:00,
2013-04-15 21:15:00,50.7,45.7,30.33,SE,146,0.0,0.0,83,0.00,,,0.03,0,Wunderground v.1.15,2013-04-16 01:15:00,
2013-04-15 21:21:00,50.6,45.9,30.33,SE,146,0.0,0.0,84,0.00,,,0.03,0,Wunderground v.1.15,2013-04-16 01:21:00,
2013-04-15 21:27:00,50.4,45.7,30.33,SE,145,0.0,0.0,84,0.00,,,0.03,0,Wunderground v.1.15,2013-04-16 01:27:00,
2013-04-15 21:33:00,50.3,45.6,30.33,ENE,62,0.0,0.0,84,0.00,,,0.03,0,Wunderground v.1.15,2013-04-16 01:33:00,
2013-04-15 21:39:00,50.1,45.8,30.33,ENE,62,0.0,0.0,85,0.00,,,0.03,0,Wunderground v.1.15,2013-04-16 01:39:00,
2013-04-15 21:45:00,50.0,45.7,30.33,ENE,62,0.0,0.0,85,0.00,,,0.03,0,Wunderground v.1.15,2013-04-16 01:45:00,
2013-04-15 21:51:00,49.8,45.5,30.33,ENE,62,0.0,0.0,85,0.00,,,0.03,0,Wunderground v.1.15,2013-04-16 01:51:00,
2013-04-15 21:57:00,49.7,45.4,30.33,ENE,62,0.0,0.0,85,0.00,,,0.03,0,Wunderground v.1.15,2013-04-16 01:57:00,
2013-04-15 22:03:00,49.6,45.3,30.33,ENE,68,0.0,0.0,85,0.00,,,0.03,0,Wunderground v.1.15,2013-04-16 02:03:00,
2013-04-15 22:09:00,49.5,45.2,30.33,ENE,69,0.0,0.0,85,0.00,,,0.03,0,Wunderground v.1.15,2013-04-16 02:09:00,
2013-04-15 22:15:00,49.4,45.4,30.33,ENE,69,0.0,0.0,86,0.00,,,0.03,0,Wunderground v.1.15,2013-04-16 02:15:00,
2013-04-15 22:21:00,49.4,45.4,30.33,ENE,69,0.0,1.0,86,0.00,,,0.03,0,Wunderground v.1.15,2013-04-16 02:21:00,
2013-04-15 22:27:00,49.3,45.3,30.34,ENE,74,0.0,1.0,86,0.00,,,0.03,0,Wunderground v.1.15,2013-04-16 02:27:00,
2013-04-15 22:33:00,49.3,45.3,30.33,ENE,74,0.0,0.0,86,0.00,,,0.03,0,Wunderground v.1.15,2013-04-16 02:33:00,
2013-04-15 22:39:00,49.3,45.3,30.33,ENE,74,0.0,0.0,86,0.00,,,0.03,0,Wunderground v.1.15,2013-04-16 02:39:00,
2013-04-15 22:45:00,49.2,45.2,30.33,ENE,74,0.0,1.0,86,0.00,,,0.03,0,Wunderground v.1.15,2013-04-16 02:45:00,
2013-04-15 22:51:00,49.1,45.1,30.33,NE,48,0.0,0.0,86,0.00,,,0.03,0,Wunderground v.1.15,2013-04-16 02:51:00,
2013-04-15 22:57:00,49.1,45.1,30.33,NE,48,0.0,0.0,86,0.00,,,0.03,0,Wunderground v.1.15,2013-04-16 02:57:00,
2013-04-15 23:03:00,49.0,45.3,30.32,East,87,0.0,0.0,87,0.00,,,0.03,0,Wunderground v.1.15,2013-04-16 03:03:00,
2013-04-15 23:09:00,49.0,45.3,30.32,NNE,22,0.0,2.0,87,0.00,,,0.03,0,Wunderground v.1.15,2013-04-16 03:09:00,
2013-04-15 23:15:00,49.0,45.3,30.32,NNE,23,0.0,2.0,87,0.00,,,0.03,0,Wunderground v.1.15,2013-04-16 03:15:00,
2013-04-15 23:21:00,49.0,45.3,30.33,NNE,23,0.0,0.0,87,0.00,,,0.03,0,Wunderground v.1.15,2013-04-16 03:21:00,
2013-04-15 23:27:00,49.0,45.0,30.33,NNE,33,0.0,0.0,86,0.00,,,0.03,0,Wunderground v.1.15,2013-04-16 03:27:00,
2013-04-15 23:33:00,49.0,45.0,30.33,NNE,23,0.0,0.0,86,0.00,,,0.03,0,Wunderground v.1.15,2013-04-16 03:33:00,
2013-04-15 23:39:00,49.0,45.3,30.32,NNE,23,0.0,0.0,87,0.00,,,0.03,0,Wunderground v.1.15,2013-04-16 03:39:00,
2013-04-15 23:45:00,48.9,45.2,30.32,NNE,23,0.0,0.0,87,0.00,,,0.03,0,Wunderground v.1.15,2013-04-16 03:45:00,
2013-04-15 23:51:00,48.9,45.2,30.33,NNE,23,0.0,1.0,87,0.00,,,0.03,0,Wunderground v.1.15,2013-04-16 03:51:00,
2013-04-15 23:57:00,48.9,45.2,30.33,NNE,23,0.0,1.0,87,0.00,,,0.03,0,Wunderground v.1.15,2013-04-16 03:57:00,